Hourly Weather Rudka

Today, 15 April, Thursday

Time Temperature Precipitation Wind Pressure Humidity
00:00 0°C° 0.4 mm 4 mps 738 mmHg 96%
01:00 0°C° 0.4 mm 4 mps 738 mmHg 96%
02:00 0°C° 0 mm 4 mps 738 mmHg 96%
03:00 0°C° 0.3 mm 4 mps 738 mmHg 96%
04:00 0°C° 0.3 mm 4 mps 738 mmHg 96%
05:00 0°C° 0.3 mm 4 mps 738 mmHg 97%
06:00 +1°C° 0.4 mm 3 mps 738 mmHg 97%
07:00 +1°C° 0.4 mm 3 mps 738 mmHg 97%
08:00 +1°C° 0.4 mm 3 mps 738 mmHg 98%
09:00 +1°C° 0.3 mm 3 mps 738 mmHg 98%
10:00 +1°C° 0.3 mm 3 mps 738 mmHg 98%
11:00 0°C° 0.3 mm 4 mps 738 mmHg 98%
12:00 0°C° 0 mm 4 mps 739 mmHg 97%
13:00 +1°C° 0 mm 4 mps 739 mmHg 96%
14:00 +1°C° 0 mm 4 mps 739 mmHg 95%
15:00 +1°C° 0 mm 4 mps 739 mmHg 94%
16:00 +1°C° 0 mm 5 mps 738 mmHg 92%
17:00 +1°C° 0 mm 5 mps 738 mmHg 91%
18:00 +1°C° 0 mm 5 mps 738 mmHg 92%
19:00 +1°C° 0 mm 5 mps 738 mmHg 94%
20:00 0°C° 0 mm 5 mps 738 mmHg 95%
21:00 0°C° 0.1 mm 5 mps 738 mmHg 96%
22:00 0°C° 0.1 mm 5 mps 738 mmHg 96%
23:00 0°C° 0.1 mm 5 mps 738 mmHg 96%

Tomorrow, 16 April, Friday

Time Temperature Precipitation Wind Pressure Humidity
00:00 -1°C° 0.6 mm 6 mps 737 mmHg 97%
01:00 -1°C° 0.6 mm 6 mps 737 mmHg 97%
02:00 -2°C° 0.6 mm 6 mps 737 mmHg 97%
03:00 -2°C° 0.5 mm 6 mps 737 mmHg 97%
04:00 -2°C° 0.5 mm 6 mps 737 mmHg 97%
05:00 -2°C° 0.5 mm 6 mps 737 mmHg 97%
06:00 -2°C° 0.5 mm 6 mps 737 mmHg 97%
07:00 -2°C° 0.5 mm 6 mps 737 mmHg 97%
08:00 -2°C° 0.5 mm 6 mps 737 mmHg 97%
09:00 -2°C° 0.4 mm 6 mps 737 mmHg 97%
10:00 -2°C° 0.4 mm 6 mps 737 mmHg 97%
11:00 -2°C° 0.4 mm 6 mps 737 mmHg 97%
12:00 -2°C° 0.2 mm 6 mps 737 mmHg 97%
13:00 -1°C° 0.2 mm 6 mps 737 mmHg 97%
14:00 -1°C° 0.2 mm 6 mps 738 mmHg 97%
15:00 -1°C° 0.2 mm 6 mps 738 mmHg 97%
16:00 -1°C° 0.2 mm 6 mps 738 mmHg 97%
17:00 -2°C° 0.2 mm 6 mps 738 mmHg 97%
18:00 -2°C° 0.1 mm 6 mps 738 mmHg 97%
19:00 -2°C° 0.1 mm 6 mps 738 mmHg 97%
20:00 -1°C° 0.1 mm 5 mps 739 mmHg 97%
21:00 -1°C° 0.3 mm 5 mps 739 mmHg 97%
22:00 -1°C° 0.3 mm 5 mps 739 mmHg 97%
23:00 -1°C° 0.3 mm 5 mps 739 mmHg 97%

Day after tomorrow, 17 April, Saturday

Time Temperature Precipitation Wind Pressure Humidity
00:00 -1°C° 0.1 mm 5 mps 739 mmHg 97%
01:00 0°C° 0.1 mm 5 mps 739 mmHg 97%
02:00 0°C° 0.1 mm 5 mps 739 mmHg 97%
03:00 0°C° 0.2 mm 5 mps 739 mmHg 98%
04:00 0°C° 0.2 mm 5 mps 740 mmHg 98%
05:00 0°C° 0.2 mm 4 mps 740 mmHg 98%
06:00 0°C° 0 mm 4 mps 740 mmHg 98%
07:00 0°C° 0 mm 4 mps 740 mmHg 98%
08:00 +1°C° 0 mm 3 mps 741 mmHg 98%
09:00 +2°C° 0 mm 3 mps 741 mmHg 98%
10:00 +2°C° 0 mm 3 mps 741 mmHg 98%
11:00 +3°C° 0 mm 2 mps 741 mmHg 99%
12:00 +4°C° 0 mm 2 mps 742 mmHg 98%
13:00 +4°C° 0 mm 2 mps 742 mmHg 97%
14:00 +5°C° 0 mm 1 mps 742 mmHg 96%
15:00 +5°C° 0 mm 1 mps 742 mmHg 95%
16:00 +6°C° 0 mm 1 mps 742 mmHg 95%
17:00 +5°C° 0 mm 0 mps 742 mmHg 94%
18:00 +5°C° 0 mm 1 mps 742 mmHg 95%
19:00 +5°C° 0 mm 1 mps 742 mmHg 96%
20:00 +5°C° 0 mm 1 mps 742 mmHg 97%
21:00 +4°C° 0 mm 1 mps 742 mmHg 97%
22:00 +4°C° 0 mm 1 mps 742 mmHg 97%
23:00 +4°C° 0 mm 1 mps 742 mmHg 96%

18 April, Sunday

Time Temperature Precipitation Wind Pressure Humidity
00:00 +4°C° 0 mm 1 mps 742 mmHg 96%
01:00 +4°C° 0 mm 1 mps 742 mmHg 95%
02:00 +4°C° 0 mm 1 mps 742 mmHg 95%
03:00 +3°C° 0 mm 1 mps 741 mmHg 95%
04:00 +3°C° 0 mm 1 mps 741 mmHg 95%
05:00 +3°C° 0 mm 1 mps 741 mmHg 95%
06:00 +4°C° 0 mm 1 mps 741 mmHg 92%
07:00 +5°C° 0 mm 1 mps 741 mmHg 89%
08:00 +6°C° 0 mm 1 mps 741 mmHg 85%
09:00 +7°C° 0 mm 1 mps 741 mmHg 79%
10:00 +9°C° 0 mm 1 mps 741 mmHg 73%
11:00 +11°C° 0 mm 1 mps 741 mmHg 66%
12:00 +11°C° 0 mm 1 mps 741 mmHg 63%
13:00 +12°C° 0 mm 1 mps 741 mmHg 59%
14:00 +13°C° 0 mm 1 mps 741 mmHg 56%
15:00 +13°C° 0 mm 1 mps 741 mmHg 57%
16:00 +12°C° 0 mm 2 mps 740 mmHg 58%
17:00 +12°C° 0 mm 2 mps 740 mmHg 58%
18:00 +10°C° 0 mm 2 mps 740 mmHg 62%
19:00 +10°C° 0 mm 2 mps 741 mmHg 66%
20:00 +9°C° 0 mm 2 mps 741 mmHg 70%
21:00 +9°C° 0 mm 2 mps 741 mmHg 73%
22:00 +8°C° 0 mm 2 mps 741 mmHg 75%
23:00 +8°C° 0 mm 2 mps 741 mmHg 78%

19 April, Monday

Time Temperature Precipitation Wind Pressure Humidity
00:00 +8°C° 0 mm 2 mps 741 mmHg 79%
01:00 +8°C° 0 mm 2 mps 741 mmHg 81%
02:00 +7°C° 0 mm 2 mps 740 mmHg 83%
03:00 +7°C° 0 mm 2 mps 740 mmHg 83%
04:00 +7°C° 0 mm 2 mps 740 mmHg 84%
05:00 +7°C° 0 mm 2 mps 740 mmHg 84%
06:00 +7°C° 0 mm 2 mps 740 mmHg 82%
07:00 +8°C° 0 mm 3 mps 740 mmHg 79%
08:00 +9°C° 0 mm 3 mps 740 mmHg 77%
09:00 +10°C° 0 mm 4 mps 740 mmHg 71%
10:00 +11°C° 0 mm 4 mps 740 mmHg 65%
11:00 +12°C° 0 mm 5 mps 739 mmHg 60%
12:00 +12°C° 0.1 mm 5 mps 739 mmHg 60%
13:00 +12°C° 0.1 mm 5 mps 739 mmHg 60%
14:00 +12°C° 0.1 mm 5 mps 739 mmHg 61%
15:00 +12°C° 0.1 mm 5 mps 739 mmHg 63%
16:00 +11°C° 0.1 mm 6 mps 738 mmHg 65%
17:00 +11°C° 0.1 mm 6 mps 738 mmHg 67%
18:00 +10°C° 0 mm 6 mps 738 mmHg 71%
19:00 +9°C° 0 mm 5 mps 738 mmHg 76%
20:00 +7°C° 0 mm 5 mps 738 mmHg 81%
21:00 +7°C° 0 mm 5 mps 738 mmHg 81%
22:00 +6°C° 0 mm 5 mps 737 mmHg 82%
23:00 +6°C° 0 mm 5 mps 737 mmHg 82%

20 April, Tuesday

Time Temperature Precipitation Wind Pressure Humidity
00:00 +6°C° 0 mm 5 mps 737 mmHg 82%
01:00 +5°C° 0 mm 6 mps 736 mmHg 82%
02:00 +5°C° 0 mm 6 mps 736 mmHg 82%
03:00 +4°C° 0 mm 6 mps 736 mmHg 84%
04:00 +4°C° 0 mm 6 mps 736 mmHg 87%
05:00 +3°C° 0 mm 6 mps 736 mmHg 89%
06:00 +4°C° 0 mm 7 mps 736 mmHg 87%
07:00 +4°C° 0 mm 7 mps 736 mmHg 84%
08:00 +5°C° 0 mm 7 mps 736 mmHg 82%
09:00 +5°C° 0 mm 7 mps 735 mmHg 81%
10:00 +5°C° 0 mm 7 mps 735 mmHg 80%
11:00 +5°C° 0 mm 7 mps 735 mmHg 79%
12:00 +5°C° 0 mm 7 mps 735 mmHg 76%
13:00 +7°C° 0 mm 6 mps 735 mmHg 73%
14:00 +7°C° 0 mm 6 mps 735 mmHg 70%
15:00 +7°C° 0 mm 5 mps 735 mmHg 70%
16:00 +7°C° 0 mm 5 mps 735 mmHg 70%
17:00 +8°C° 0 mm 4 mps 735 mmHg 69%
18:00 +7°C° 0 mm 4 mps 735 mmHg 70%
19:00 +8°C° 0 mm 3 mps 735 mmHg 71%
20:00 +7°C° 0 mm 3 mps 735 mmHg 72%
21:00 +7°C° 0 mm 3 mps 735 mmHg 72%
22:00 +7°C° 0 mm 3 mps 735 mmHg 72%
23:00 +7°C° 0 mm 3 mps 735 mmHg 72%
Show more